W0NKY-13 Weather Reports


time (UTC)temp
C
wind
direction
speed
KPH
gust
KPH
rain 1hr
cm
rain 24hr
cm
rain mn
cm
humidity
%
barometer
mb
20260503224519 15 1 3.2 9.7 0.00 0.00 0.00 41 1015.8
20260503223519 16 33 3.2 6.4 0.00 0.00 0.00 42 1016.0
20260503222519 16 39 3.2 11.3 0.00 0.00 0.00 41 1016.2
20260503221516 16 41 3.2 9.7 0.00 0.00 0.00 40 1016.2
20260503220516 16 4 4.8 9.7 0.00 0.00 0.00 39 1016.5
20260503215517 16 357 3.2 11.3 0.00 0.00 0.00 41 1016.8
20260503214520 17 80 3.2 9.7 0.00 0.00 0.00 41 1016.9
20260503213520 16 32 1.6 8.0 0.00 0.00 0.00 40 1016.9
20260503212517 16 41 3.2 8.0 0.00 0.00 0.00 39 1016.8
20260503211537 17 11 3.2 12.9 0.00 0.00 0.00 39 1017.1
20260503210517 17 19 3.2 8.0 0.00 0.00 0.00 39 1017.2
20260503205517 16 11 3.2 9.7 0.00 0.00 0.00 41 1017.4
20260503204518 16 49 3.2 9.7 0.00 0.00 0.00 39 1017.3
20260503203518 16 29 3.2 11.3 0.00 0.00 0.00 40 1017.4
20260503202518 17 55 3.2 11.3 0.00 0.00 0.00 41 1017.3
20260503201518 17 27 3.2 9.7 0.00 0.00 0.00 39 1017.5
20260503200518 17 51 3.2 12.9 0.00 0.00 0.00 41 1017.8
20260503195519 17 21 3.2 12.9 0.00 0.00 0.00 40 1017.9
20260503194518 17 4 4.8 14.5 0.00 0.00 0.00 38 1018.1
20260503193538 16 11 3.2 9.7 0.00 0.00 0.00 39 1018.3
20260503192539 17 24 4.8 11.3 0.00 0.00 0.00 39 1018.6
20260503191539 17 63 3.2 11.3 0.00 0.00 0.00 39 1018.8
20260503190517 17 40 3.2 12.9 0.00 0.00 0.00 40 1019.0
20260503185516 17 12 4.8 11.3 0.00 0.00 0.00 40 1019.2
20260503184539 17 40 3.2 9.7 0.00 0.00 0.00 41 1019.2
20260503183539 17 39 4.8 9.7 0.00 0.00 0.00 38 1019.5
20260503182516 18 5 3.2 8.0 0.00 0.00 0.00 38 1019.6
20260503181516 18 23 3.2 8.0 0.00 0.00 0.00 37 1019.6
20260503180537 17 10 3.2 9.7 0.00 0.00 0.00 38 1019.7
20260503175520 17 10 3.2 9.7 0.00 0.00 0.00 40 1019.8
20260503174520 17 31 4.8 14.5 0.00 0.00 0.00 38 1019.8
20260503173517 17 3 3.2 11.3 0.00 0.00 0.00 38 1020.1
20260503172518 17 2 4.8 11.3 0.00 0.00 0.00 37 1020.3
20260503171517 17 28 3.2 14.5 0.00 0.00 0.00 38 1020.6
20260503170518 17 28 3.2 9.7 0.00 0.00 0.00 37 1020.7
20260503150516 17 110 1.6 6.4 0.00 0.00 0.00 41 1022.1
20260503130538 6 12 3.2 4.8 0.00 0.00 0.00 78 1022.1
20260503110517 -1 20 0.0 3.2 0.00 0.00 0.00 94 1021.1
20260503081519 -1 32 0.0 1.6 0.00 0.00 0.00 94 1020.4
20260503080519 -1 200 0.0 1.6 0.00 0.00 0.00 94 1020.4
20260503072519 -1 269 0.0 1.6 0.00 0.00 0.00 93 1020.3
20260503071516 -1 24 0.0 1.6 0.00 0.00 0.00 93 1020.3
20260503070517 -1 0.0 0.0 0.00 0.00 0.00 93 1020.3
20260503054517 0 30 0.0 1.6 0.00 0.00 0.00 93 1020.6
20260503053518 0 18 0.0 1.6 0.00 0.00 0.00 92 1020.6
20260503052518 0 89 0.0 0.0 0.00 0.00 0.00 92 1020.6
20260503051518 0 1 0.0 1.6 0.00 0.00 0.00 92 1020.7
20260503050559 0 9 0.0 1.6 0.00 0.00 0.00 92 1020.7
20260503045515 0 356 0.0 1.6 0.00 0.00 0.00 92 1020.7
20260503044518 0 0.0 0.0 0.00 0.00 0.00 92 1020.6
20260503043519 0 3 0.0 1.6 0.00 0.00 0.00 92 1020.6
20260503042518 0 208 0.0 0.0 0.00 0.00 0.00 92 1020.7
20260503041519 0 8 0.0 1.6 0.00 0.00 0.00 90 1020.6
20260503040519 0 33 0.0 1.6 0.00 0.00 0.00 89 1020.8
20260503035519 0 19 0.0 1.6 0.00 0.00 0.00 88 1020.8
20260503034519 0 327 0.0 1.6 0.00 0.00 0.00 89 1020.9
20260503033519 0 75 0.0 0.0 0.00 0.00 0.00 88 1020.8
20260503032519 0 21 0.0 1.6 0.00 0.00 0.00 85 1020.8
20260503031519 1 19 0.0 1.6 0.00 0.00 0.00 84 1020.8
20260503030519 1 87 0.0 0.0 0.00 0.00 0.00 84 1020.8
20260503025540 2 0.0 0.0 0.00 0.00 0.00 81 1020.8
20260503024540 3 15 0.0 3.2 0.00 0.00 0.00 78 1020.7
20260503023520 3 11 1.6 3.2 0.00 0.00 0.00 76 1020.7
20260503022517 3 8 0.0 3.2 0.00 0.00 0.00 75 1020.6
20260503021517 3 6 1.6 1.6 0.00 0.00 0.00 73 1020.5
20260503020520 3 1 1.6 1.6 0.00 0.00 0.00 71 1020.4
20260503015518 3 7 1.6 3.2 0.00 0.00 0.00 70 1020.2
20260503014518 3 14 0.0 1.6 0.00 0.00 0.00 70 1020.1
20260503013518 4 23 0.0 3.2 0.00 0.00 0.00 68 1020.0
20260503012518 5 6 0.0 1.6 0.00 0.00 0.00 66 1019.9
20260503011538 5 360 0.0 3.2 0.00 0.00 0.00 65 1019.8
20260503010518 6 9 1.6 3.2 0.00 0.00 0.00 62 1019.6
20260503005518 6 15 0.0 3.2 0.00 0.00 0.00 62 1019.6
20260503004518 6 4 1.6 3.2 0.00 0.00 0.00 62 1019.6
20260503003538 7 22 0.0 3.2 0.00 0.00 0.00 61 1019.5
20260503002519 7 47 0.0 3.2 0.00 0.00 0.00 58 1019.4
20260503001538 8 140 0.0 1.6 0.00 0.00 0.00 56 1019.2
20260503000519 8 5 0.0 3.2 0.00 0.00 0.00 54 1019.1
20260502235559 9 30 0.0 1.6 0.00 0.00 0.00 54 1019.0
20260502234519 10 359 1.6 4.8 0.00 0.00 0.00 51 1019.0
20260502233519 10 29 1.6 4.8 0.00 0.00 0.00 47 1018.9
20260502232519 11 60 1.6 4.8 0.00 0.00 0.00 47 1018.9
20260502231517 11 6 1.6 4.8 0.00 0.00 0.00 46 1018.9
20260502230520 11 0 1.6 6.4 0.00 0.00 0.00 45 1019.0
20260502225519 11 14 1.6 4.8 0.00 0.00 0.00 45 1018.9